Location: Emblem
(62.4273°N, 6.4710°E)
Time: 00:47:34
(UTC+02:00)

UWE-3 - Pass Details

Date: 28 March 2023
Orbit: 577 x 669 km, 97.7° (Epoch: 06 June)

Event Time Altitude Azimuth Distance (km) Brightness Sun altitude
Rises 05:24:46 0° 17° (NNE) 3,030 ? -12.2°
Reaches altitude 10° 05:27:02 10° 15° (NNE) 2,105 ? -12.0°
Maximum altitude 05:31:37 68° 293° (WNW) 711 ? -11.6°
Enters shadow 05:35:47 12° 211° (SSW) 1,932 ? -11.1°
